AVR4836 SKBO-SKSM

Flight info

Callsign AVR4836
Flight time N/A
Altitude 34000
Route DANSA4R GIKPU UQ120 YACAR/N0455F360 UQ120 DIBAM UW9 ELB/N0456F350 UW9 EDVAR EDVAR1D
Aircraft A320/M-SDE3FGHIRWY/LB1

Departure

Time 2026-05-01 14:19
Airport El Dorado International Airport (SKBO)

Arrival

Time N/A
Airport Simón Bolívar International Airport (SKSM)
Time Latitude Longitude Altitude Speed Heading
2026-05-01 13:55 4.69966 -74.14304 8373 ft 0 kts 37°
2026-05-01 14:08 4.69954 -74.14313 8371 ft 4 kts 37°
2026-05-01 14:08 4.69936 -74.14327 8373 ft 4 kts 32°
2026-05-01 14:08 4.69915 -74.14333 8373 ft 4 kts 330°
2026-05-01 14:09 4.69901 -74.14321 8373 ft 0 kts 306°
2026-05-01 14:09 4.69909 -74.14332 8371 ft 0 kts 306°
2026-05-01 14:11 4.69910 -74.14333 8371 ft 1 kts 306°
2026-05-01 14:12 4.69940 -74.14373 8373 ft 12 kts 306°
2026-05-01 14:12 4.69993 -74.14444 8373 ft 15 kts 307°
2026-05-01 14:12 4.70056 -74.14525 8371 ft 14 kts 308°
2026-05-01 14:12 4.70038 -74.14605 8373 ft 14 kts 219°
2026-05-01 14:13 4.69948 -74.14672 8372 ft 17 kts 216°
2026-05-01 14:13 4.69885 -74.14720 8373 ft 17 kts 217°
2026-05-01 14:13 4.69775 -74.14802 8373 ft 12 kts 217°
2026-05-01 14:13 4.69774 -74.14866 8371 ft 10 kts 306°
2026-05-01 14:14 4.69830 -74.14940 8371 ft 17 kts 307°
2026-05-01 14:14 4.69907 -74.15043 8373 ft 18 kts 307°
2026-05-01 14:14 4.69984 -74.15144 8371 ft 19 kts 308°
2026-05-01 14:14 4.70066 -74.15254 8373 ft 24 kts 307°
2026-05-01 14:15 4.70173 -74.15395 8373 ft 26 kts 307°
2026-05-01 14:15 4.70282 -74.15540 8373 ft 26 kts 308°
2026-05-01 14:15 4.70394 -74.15687 8373 ft 27 kts 307°
2026-05-01 14:15 4.70506 -74.15836 8373 ft 27 kts 307°
2026-05-01 14:16 4.70620 -74.15986 8373 ft 27 kts 307°
2026-05-01 14:16 4.70735 -74.16137 8374 ft 27 kts 307°
2026-05-01 14:16 4.70848 -74.16287 8371 ft 28 kts 307°
2026-05-01 14:16 4.70965 -74.16441 8372 ft 28 kts 307°
2026-05-01 14:17 4.71085 -74.16599 8373 ft 28 kts 307°
2026-05-01 14:17 4.71196 -74.16746 8373 ft 17 kts 307°
2026-05-01 14:17 4.71161 -74.16825 8373 ft 15 kts 216°
2026-05-01 14:17 4.71076 -74.16887 8373 ft 16 kts 215°
2026-05-01 14:18 4.71004 -74.16848 8373 ft 14 kts 127°
2026-05-01 14:18 4.70892 -74.16700 8373 ft 55 kts 127°
2026-05-01 14:18 4.70523 -74.16213 8374 ft 118 kts 127°
2026-05-01 14:18 4.70142 -74.15710 8369 ft 154 kts 127°
2026-05-01 14:19 4.69143 -74.14396 8725 ft 186 kts 126°
2026-05-01 14:19 4.68326 -74.13398 9473 ft 190 kts 142°
2026-05-01 14:19 4.67060 -74.13039 10080 ft 197 kts 190°
2026-05-01 14:19 4.65837 -74.13737 10437 ft 218 kts 232°
2026-05-01 14:20 4.64972 -74.15050 10741 ft 232 kts 237°
2026-05-01 14:20 4.63232 -74.17988 11584 ft 253 kts 234°
2026-05-01 14:20 4.62303 -74.19506 12193 ft 256 kts 236°
2026-05-01 14:21 4.61484 -74.21112 12803 ft 264 kts 252°
2026-05-01 14:21 4.61075 -74.22994 13026 ft 288 kts 257°
2026-05-01 14:21 4.60683 -74.25051 13218 ft 311 kts 257°
2026-05-01 14:22 4.58740 -74.28892 14222 ft 319 kts 219°
2026-05-01 14:22 4.57112 -74.30432 14815 ft 323 kts 221°
2026-05-01 14:22 4.55542 -74.32038 15431 ft 325 kts 223°
2026-05-01 14:22 4.53975 -74.33700 15967 ft 330 kts 224°
2026-05-01 14:23 4.52434 -74.35446 16360 ft 342 kts 222°
2026-05-01 14:23 4.50542 -74.36969 16421 ft 357 kts 210°
2026-05-01 14:23 4.48329 -74.38223 16530 ft 374 kts 204°
2026-05-01 14:23 4.45988 -74.39364 16861 ft 383 kts 202°
2026-05-01 14:24 4.43570 -74.40538 17351 ft 387 kts 204°
2026-05-01 14:24 4.41156 -74.41785 17898 ft 392 kts 205°
2026-05-01 14:24 4.38709 -74.43014 18430 ft 393 kts 198°
2026-05-01 14:24 4.36073 -74.43674 18921 ft 390 kts 182°
2026-05-01 14:25 4.33413 -74.43583 19388 ft 388 kts 166°
2026-05-01 14:25 4.30868 -74.42709 19850 ft 387 kts 150°
2026-05-01 14:25 4.28684 -74.41132 20318 ft 387 kts 134°
2026-05-01 14:25 4.27051 -74.39023 20767 ft 389 kts 118°
2026-05-01 14:26 4.26057 -74.36500 21214 ft 393 kts 103°
2026-05-01 14:26 4.25130 -74.31036 22121 ft 400 kts 100°
2026-05-01 14:26 4.24832 -74.29209 22399 ft 403 kts 100°
2026-05-01 14:27 4.24378 -74.26425 22818 ft 406 kts 100°
2026-05-01 14:27 4.23765 -74.22699 23384 ft 409 kts 100°
2026-05-01 14:27 4.23455 -74.20827 23689 ft 411 kts 100°
2026-05-01 14:28 4.22510 -74.15113 24362 ft 418 kts 100°
2026-05-01 14:28 4.22036 -74.12234 24717 ft 420 kts 100°
2026-05-01 14:28 4.21558 -74.09327 24999 ft 424 kts 100°
2026-05-01 14:28 4.21084 -74.06438 25326 ft 426 kts 101°
2026-05-01 14:29 4.20606 -74.03494 25664 ft 428 kts 98°
2026-05-01 14:29 4.20613 -74.00502 25937 ft 433 kts 81°
2026-05-01 14:30 4.25974 -73.93471 26743 ft 450 kts 24°
2026-05-01 14:30 4.28993 -73.92588 27013 ft 454 kts 12°
2026-05-01 14:30 4.32106 -73.91968 27281 ft 456 kts 11°
2026-05-01 14:31 4.38346 -73.90787 27845 ft 461 kts 10°
2026-05-01 14:31 4.41501 -73.90192 28204 ft 462 kts 10°
2026-05-01 14:31 4.44679 -73.89585 28492 ft 465 kts 10°
2026-05-01 14:31 4.47875 -73.88971 28779 ft 466 kts 10°
2026-05-01 14:32 4.51040 -73.88422 29043 ft 468 kts
2026-05-01 14:32 4.54292 -73.88302 29343 ft 468 kts 356°
2026-05-01 14:32 4.57520 -73.88700 29610 ft 468 kts 346°
2026-05-01 14:32 4.60709 -73.89414 29858 ft 469 kts 346°
2026-05-01 14:33 4.63903 -73.90137 30109 ft 471 kts 344°
2026-05-01 14:33 4.67110 -73.90863 30335 ft 472 kts 345°
2026-05-01 14:33 4.70313 -73.91590 30583 ft 473 kts 346°
2026-05-01 14:33 4.73493 -73.92308 30771 ft 475 kts 346°
2026-05-01 14:34 4.76726 -73.93033 30953 ft 477 kts 346°
2026-05-01 14:34 4.79972 -73.93761 31150 ft 478 kts 346°
2026-05-01 14:34 4.83226 -73.94491 31399 ft 478 kts 345°
2026-05-01 14:34 4.86477 -73.95218 31650 ft 477 kts 345°
2026-05-01 14:35 4.89685 -73.95936 31898 ft 478 kts 345°
2026-05-01 14:35 4.92929 -73.96664 32131 ft 478 kts 345°
2026-05-01 14:35 4.96174 -73.97395 32381 ft 478 kts 345°
2026-05-01 14:35 4.99454 -73.97987 32586 ft 480 kts 352°
2026-05-01 14:36 5.02807 -73.98066 32850 ft 483 kts
2026-05-01 14:36 5.06149 -73.97596 33095 ft 486 kts 11°
2026-05-01 14:36 5.09406 -73.96786 33336 ft 487 kts 12°
2026-05-01 14:36 5.12698 -73.95957 33557 ft 487 kts 12°
2026-05-01 14:37 5.15991 -73.95131 33808 ft 488 kts 12°
2026-05-01 14:37 5.19305 -73.94305 34042 ft 489 kts 12°
2026-05-01 14:37 5.22570 -73.93494 34281 ft 490 kts 12°
2026-05-01 14:37 5.25888 -73.92671 34539 ft 490 kts 11°
2026-05-01 14:38 5.29206 -73.91848 34762 ft 489 kts 11°
2026-05-01 14:38 5.32469 -73.91035 35030 ft 487 kts 11°
2026-05-01 14:38 5.35758 -73.90215 35303 ft 485 kts 11°
2026-05-01 14:38 5.39039 -73.89398 35587 ft 483 kts 11°
2026-05-01 14:39 5.42308 -73.88583 35818 ft 482 kts 11°
2026-05-01 14:39 5.45516 -73.87782 36088 ft 480 kts 11°
2026-05-01 14:39 5.48760 -73.86972 36211 ft 478 kts 11°
2026-05-01 14:40 5.55194 -73.85394 36238 ft 473 kts 10°
2026-05-01 14:40 5.61637 -73.84034 36191 ft 472 kts
2026-05-01 14:41 5.68054 -73.82785 36189 ft 472 kts
2026-05-01 14:41 5.74509 -73.81500 36155 ft 472 kts
2026-05-01 14:42 5.80921 -73.80172 36157 ft 472 kts
2026-05-01 14:42 5.87359 -73.78835 36145 ft 472 kts
2026-05-01 14:43 5.93811 -73.77500 36149 ft 472 kts
2026-05-01 14:43 6.00241 -73.76175 36102 ft 472 kts
2026-05-01 14:44 6.06641 -73.74863 36103 ft 472 kts
2026-05-01 14:44 6.16285 -73.72878 36063 ft 471 kts
2026-05-01 14:45 6.25896 -73.70891 36059 ft 471 kts
2026-05-01 14:46 6.32310 -73.69569 36017 ft 470 kts
2026-05-01 14:46 6.41903 -73.67589 36016 ft 470 kts
2026-05-01 14:47 6.48324 -73.66269 35976 ft 470 kts
2026-05-01 14:48 6.57915 -73.64296 35966 ft 471 kts
2026-05-01 14:48 6.67548 -73.62302 35983 ft 470 kts
2026-05-01 14:49 6.80343 -73.59670 35941 ft 470 kts
2026-05-01 14:50 6.93126 -73.57023 35901 ft 469 kts
2026-05-01 14:51 7.02749 -73.56277 35895 ft 463 kts 354°
2026-05-01 14:52 7.12428 -73.56751 35901 ft 463 kts 354°
2026-05-01 14:53 7.22048 -73.57211 35899 ft 463 kts 354°
2026-05-01 14:53 7.28484 -73.57514 35899 ft 463 kts 354°
2026-05-01 14:54 7.34947 -73.57826 35892 ft 464 kts 354°
2026-05-01 14:54 7.41397 -73.58136 35887 ft 464 kts 354°
2026-05-01 14:55 7.47816 -73.58447 35880 ft 464 kts 354°
2026-05-01 14:55 7.54280 -73.58758 35879 ft 464 kts 354°
2026-05-01 14:56 7.60744 -73.59068 35879 ft 465 kts 354°
2026-05-01 14:56 7.67204 -73.59378 35884 ft 465 kts 354°
2026-05-01 14:57 7.73644 -73.59685 35887 ft 465 kts 354°
2026-05-01 14:57 7.83324 -73.60140 35888 ft 465 kts 354°
2026-05-01 14:58 7.89800 -73.60454 35892 ft 465 kts 354°
2026-05-01 14:58 7.96277 -73.60772 35893 ft 465 kts 354°
2026-05-01 14:59 8.02761 -73.61087 35902 ft 466 kts 354°
2026-05-01 14:59 8.09188 -73.61392 35900 ft 466 kts 354°
2026-05-01 15:00 8.18895 -73.62038 35903 ft 462 kts 346°
2026-05-01 15:01 8.24947 -73.64061 35902 ft 457 kts 335°
2026-05-01 15:01 8.30814 -73.66473 35896 ft 457 kts 335°
2026-05-01 15:02 8.36702 -73.68889 35903 ft 456 kts 335°
2026-05-01 15:02 8.42603 -73.71307 35888 ft 457 kts 335°
2026-05-01 15:03 8.48511 -73.73723 35878 ft 458 kts 335°
2026-05-01 15:03 8.54419 -73.76140 35876 ft 458 kts 335°
2026-05-01 15:04 8.60301 -73.78552 35878 ft 459 kts 335°
2026-05-01 15:04 8.66225 -73.80990 35863 ft 459 kts 335°
2026-05-01 15:05 8.72118 -73.83408 35867 ft 459 kts 335°
2026-05-01 15:05 8.78055 -73.85842 35861 ft 460 kts 335°
2026-05-01 15:06 8.83970 -73.88274 35858 ft 460 kts 335°
2026-05-01 15:06 8.89920 -73.90711 35859 ft 460 kts 335°
2026-05-01 15:07 8.95823 -73.93137 35859 ft 460 kts 335°
2026-05-01 15:07 9.01765 -73.95580 35864 ft 460 kts 337°
2026-05-01 15:08 9.08014 -73.96892 35859 ft 466 kts 355°
2026-05-01 15:08 9.14512 -73.97158 35863 ft 465 kts 354°
2026-05-01 15:09 9.20962 -73.97435 35866 ft 465 kts 354°
2026-05-01 15:09 9.27445 -73.97717 35866 ft 465 kts 354°
2026-05-01 15:10 9.33910 -73.98003 35863 ft 465 kts 354°
2026-05-01 15:10 9.43589 -73.98432 35860 ft 464 kts 354°
2026-05-01 15:11 9.53251 -73.98854 35869 ft 464 kts 354°
2026-05-01 15:12 9.59713 -73.99134 35862 ft 464 kts 354°
2026-05-01 15:12 9.66154 -73.99418 35020 ft 469 kts 355°
2026-05-01 15:12 9.69441 -73.99567 33947 ft 475 kts 355°
2026-05-01 15:13 9.78329 -73.99959 30980 ft 484 kts 355°
2026-05-01 15:14 9.85252 -74.00258 29018 ft 482 kts 356°
2026-05-01 15:14 9.88596 -74.00401 28128 ft 479 kts 356°
2026-05-01 15:14 9.95147 -74.00683 26602 ft 469 kts 356°
2026-05-01 15:15 10.01637 -74.00979 25142 ft 462 kts 357°
2026-05-01 15:15 10.08027 -74.01268 23804 ft 456 kts 356°
2026-05-01 15:16 10.14165 -74.02490 22450 ft 448 kts 345°
2026-05-01 15:16 10.20138 -74.04061 21279 ft 437 kts 345°
2026-05-01 15:17 10.25974 -74.05592 20167 ft 427 kts 345°
2026-05-01 15:18 10.34477 -74.07824 18552 ft 417 kts 345°
2026-05-01 15:18 10.37275 -74.08561 17990 ft 414 kts 345°
2026-05-01 15:19 10.45506 -74.10720 16375 ft 402 kts 345°
2026-05-01 15:19 10.50872 -74.12129 15291 ft 397 kts 345°
2026-05-01 15:19 10.53542 -74.12832 14780 ft 394 kts 346°
2026-05-01 15:20 10.58816 -74.14227 13702 ft 389 kts 346°
2026-05-01 15:20 10.61427 -74.14915 13108 ft 387 kts 346°
2026-05-01 15:20 10.63988 -74.15589 12650 ft 380 kts 346°
2026-05-01 15:21 10.66565 -74.16265 12055 ft 379 kts 346°
2026-05-01 15:21 10.69105 -74.16933 11446 ft 376 kts 346°
2026-05-01 15:21 10.71625 -74.17596 10868 ft 373 kts 346°
2026-05-01 15:21 10.74089 -74.18243 10579 ft 363 kts 346°
2026-05-01 15:22 10.78736 -74.19591 10335 ft 332 kts 336°
2026-05-01 15:22 10.80744 -74.20665 10209 ft 320 kts 331°
2026-05-01 15:22 10.82667 -74.21739 10059 ft 309 kts 332°
2026-05-01 15:23 10.84519 -74.22769 9776 ft 305 kts 332°
2026-05-01 15:23 10.86385 -74.23803 9416 ft 303 kts 332°
2026-05-01 15:23 10.87616 -74.24485 9156 ft 303 kts 332°
2026-05-01 15:23 10.89450 -74.25530 8780 ft 300 kts 330°
2026-05-01 15:24 10.91822 -74.26951 8282 ft 296 kts 329°
2026-05-01 15:24 10.93586 -74.28029 7897 ft 294 kts 329°
2026-05-01 15:24 10.94746 -74.28738 7640 ft 292 kts 329°
2026-05-01 15:24 10.96511 -74.29814 6974 ft 300 kts 330°
2026-05-01 15:25 10.98328 -74.30918 6328 ft 307 kts 329°
2026-05-01 15:25 11.00220 -74.31913 5845 ft 305 kts 342°
2026-05-01 15:25 11.02289 -74.32259 5429 ft 299 kts 359°
2026-05-01 15:25 11.04361 -74.32300 5024 ft 295 kts 359°
2026-05-01 15:26 11.06404 -74.32341 4633 ft 291 kts 359°
2026-05-01 15:26 11.08418 -74.32381 4215 ft 287 kts 359°
2026-05-01 15:26 11.10381 -74.32423 3826 ft 283 kts 359°
2026-05-01 15:26 11.12337 -74.32460 3431 ft 279 kts
2026-05-01 15:27 11.14189 -74.31986 3062 ft 275 kts 31°
2026-05-01 15:27 11.15662 -74.30773 2715 ft 269 kts 42°
2026-05-01 15:27 11.16993 -74.29444 2343 ft 266 kts 44°
2026-05-01 15:28 11.18819 -74.26501 1634 ft 236 kts 89°
2026-05-01 15:28 11.18460 -74.24947 1356 ft 220 kts 117°
2026-05-01 15:28 11.17517 -74.23786 1048 ft 207 kts 144°
2026-05-01 15:29 11.15001 -74.23105 577 ft 171 kts 182°
2026-05-01 15:29 11.13872 -74.23101 284 ft 159 kts 178°
2026-05-01 15:29 11.11599 -74.23087 888 ft 187 kts 180°
2026-05-01 15:30 11.09133 -74.23101 1505 ft 217 kts 180°
2026-05-01 15:31 11.04510 -74.23135 2265 ft 220 kts 180°
2026-05-01 15:31 11.01556 -74.23525 2673 ft 219 kts 214°
2026-05-01 15:32 11.00389 -74.26206 2987 ft 219 kts 282°
2026-05-01 15:32 11.01987 -74.28791 3010 ft 220 kts 310°
2026-05-01 15:33 11.04112 -74.31208 3006 ft 220 kts 318°
2026-05-01 15:34 11.08434 -74.32184 2963 ft 214 kts 357°